www.pogodaiklimat.ru

Погода и климат >> Архив погоды >> Россия >> Татарстан >> Аксубаево


ПОГОДА в Аксубаево

  • Прогноз погоды в Аксубаево
  • Монитор погоды в Аксубаево

АРХИВ ПОГОДЫ в Аксубаево

Время (UTC), дата Ветер
(напр.,м/с)
 
Видим.   Явления Облачность Т
(С)
Тd
(С)
f
(%)
Тe
(С)
Тes
(С)
Комфортность P
(гПа)
Po
(гПа)
Тmin
(С)
Tmax
(С)
R
(мм)
R24
(мм)
S
(см)
00 14.08 СЗ 4 н/о н/о +12.8 +9.6 81 +11 +11 1013.5 999.4
03 14.08 СЗ 3 н/о н/о +11.9 +10.1 89 +10 +10 1013.8 999.6 +11.7
06 14.08 СЗ 3 н/о н/о +15.2 +11.3 78 +15 +15 1014.2 1000.2
09 14.08 С 2 н/о н/о +17.3 +12.0 71 +18 +18 1013.8 999.9
12 14.08 СВ 2 н/о н/о +18.1 +13.1 73 +19 +19 1013.9 1000.1
15 14.08 СВ 1 н/о н/о +18.0 +13.5 75 +19 +19 1014.1 1000.2 +19.4
18 14.08 С 1 н/о н/о +14.4 +12.9 91 +15 +15 1015.5 1001.4
21 14.08 СЗ 1 н/о н/о +11.6 +10.5 93 +11 +11 1015.7 1001.5
00 15.08 С 1 н/о н/о +10.2 +9.2 94 +10 +10 1016.7 1002.4
03 15.08 штиль 0 н/о н/о +10.8 +9.9 94 +10 +10 1017.7 1003.5 +9.2
06 15.08 Ю 2 н/о н/о +18.3 +14.0 76 +19 +19 1017.8 1003.9
09 15.08 ЮВ 2 н/о н/о +22.7 +12.8 54 +26 +26 жарко 1017.1 1003.4
12 15.08 Ю 2 н/о н/о +25.0 +13.0 47 +27 +27 жарко 1016.4 1002.8
15 15.08 Ю 2 н/о н/о +22.9 +14.6 59 +27 +27 душно 1016.0 1002.3 +25.1
18 15.08 Ю 2 н/о н/о +17.9 +13.6 76 +18 +18 1016.6 1002.7
21 15.08 ЮЗ 2 н/о н/о +14.1 +12.1 88 +14 +14 1017.1 1003.0
00 16.08 Ю 1 н/о н/о +12.7 +11.5 92 +13 +13 1017.1 1002.9
03 16.08 штиль 0 н/о н/о +15.6 +13.4 87 +15 +15 1016.9 1002.9 +11.7
06 16.08 Ю 4 н/о н/о +23.5 +15.4 60 +26 +26 жарко 1016.0 1002.4
09 16.08 Ю 5 н/о н/о +28.1 +15.4 46 +31 +31 душно 1014.6 1001.2
12 16.08 ЮЗ 4 н/о н/о +29.3 +14.8 41 +32 +32 душно 1014.8 1001.4
15 16.08 ЮЗ 1 н/о н/о +27.1 +15.8 50 +30 +30 душно 1014.1 1000.7 +29.4
18 16.08 штиль 0 н/о н/о +20.4 +15.4 73 +23 +23 комфорт 1014.9 1001.1
21 16.08 С 1 н/о н/о +16.7 +14.6 87 +18 +18 1015.1 1001.2
00 17.08 С 1 н/о н/о +16.1 +14.4 90 +17 +17 1015.3 1001.3
03 17.08 С 1 н/о н/о +18.3 +15.7 85 +20 +20 1014.7 1000.8 +15.8
06 17.08 Ю 2 н/о н/о +22.4 +16.1 68 +27 +27 душно 1015.4 1001.7
09 17.08 Ю 2 н/о н/о +24.9 +16.9 61 +29 +29 душно 1015.6 1002.1
12 17.08 СЗ 2 н/о н/о +26.2 +17.6 59 +30 +30 душно 1015.9 1002.4
15 17.08 СВ 1 н/о н/о +23.8 +18.8 74 +29 +29 душно 1015.9 1002.3 +26.9
18 17.08 С 2 н/о н/о +20.6 +18.0 85 +25 +25 комфорт 1016.1 1002.3
21 17.08 С 1 н/о н/о +18.7 +16.2 85 +21 +21 комфорт 1015.8 1002.0
00 18.08 СВ 1 н/о н/о +18.1 +15.4 84 +19 +19 1015.9 1002.0
03 18.08 Ю 1 н/о н/о +18.9 +15.8 82 +21 +21 комфорт 1016.0 1002.2 +17.5
06 18.08 СВ 2 н/о н/о +21.8 +16.6 72 +26 +26 душно 1016.5 1002.8
09 18.08 ЮВ 2 н/о н/о +25.0 +16.7 60 +29 +29 душно 1016.9 1003.3
12 18.08 ЮВ 3 н/о н/о +29.0 +16.4 47 +32 +32 душно 1016.7 1003.3
15 18.08 Ю 1 н/о н/о +24.9 +16.4 59 +28 +28 жарко 1017.5 1003.9 +29.7
18 18.08 С 1 н/о н/о +18.7 +14.6 77 +21 +21 комфорт 1018.8 1004.9
21 18.08 С 2 н/о н/о +18.5 +14.7 79 +20 +20 1019.3 1005.4
00 19.08 С 1 н/о н/о +16.6 +13.4 81 +17 +17 1019.5 1005.5
03 19.08 ЮЗ 1 н/о н/о +16.7 +14.6 87 +18 +18 1020.9 1006.9 +15.8
06 19.08 СВ 1 н/о н/о +19.6 +15.4 77 +23 +23 комфорт 1020.2 1006.3
09 19.08 ЮВ 4 н/о н/о +27.6 +15.2 47 +30 +30 жарко 1019.2 1005.7
12 19.08 ЮЗ 2 н/о н/о +28.1 +18.5 56 +33 +33 очень
душно
1018.7 1005.3
15 19.08 штиль 0 н/о н/о +25.8 +19.7 69 +31 +31 очень
душно
1018.5 1005.0 +31.2
18 19.08 СВ 1 н/о н/о +18.8 +16.1 84 +21 +21 комфорт 1018.8 1005.0
21 19.08 С 1 н/о н/о +18.3 +16.2 88 +20 +20 1017.5 1003.6

 

Местоположение метеостанции Аксубаево (Татарстан, Россия): широта 54.83 долгота 50.78 высота над уровнем моря 110 м.

В архиве по умолчанию представлена погода в Аксубаево за последнюю неделю. Архивные данные за месяц целиком и за предыдущие месяцы, начиная с января 2011 года, Вы можете получить, выбрав интересующий диапазон дат из раскрывающегося списка и нажав кнопку "Ввод!".


*Определитесь, кто Вы:
робот инопланетянин человек

Внимание! Время в таблицах - всемирное. Для получения местного времени необходимо прибавить поправку, которая равна 3 ч.

Смотрите также архив погоды в соседних городах и на ближайших метеорологических станциях:

Погода в Чулпаново (Татарстан, Россия) (43 км)
Погода в Челно-Вершинах (Самарская область, Россия) (50 км)
Погода в Чистополе (Татарстан, Россия) (55 км)
Погода в Алексеевском (Татарстан, Россия) (68 км)
Погода в Акташе (Татарстан, Россия) (89 км)
Погода в Отарке (Татарстан, Россия) (100 км)
Погода в Димитровграде (Ульяновская область, Россия) (101 км)
Погода в Клявлино (Самарская область, Россия) (102 км)
Погода в Лаишево (Татарстан, Россия) (103 км)
Погода в Серноводске (Самарская область, Россия) (106 км)

Пояснения к столбцам:

Ветер - указаны скорость ветра в м/с - средняя за 10 мин, порывы в срок и между сроками (в фигурных скобках) и направление, откуда дует ветер: С - северный, СВ - северо-восточный, В - восточный, ЮВ - юго-восточный, Ю - южный, ЮЗ - юго-западный, З - западный, СЗ - северо-западный.
Видимость - горизонтальная дальность видимости в метрах или километрах. При видимости от 1 до 10 км при отсутствии осадков обычно наблюдается дымка, при ухудшении видимости до 1 км и менее - туман. В сухую погоду видимость может ухудшаться дымом, пылью или мглою.
Явления - указаны атмосферные явления, наблюдавшиеся в срок или в последний час перед сроком; фигурными скобками обозначены явления, наблюдавшиеся между сроками (за 1-3 часа до срока); квадратными скобками обозначены град или гололедные отложения с указанием их диаметра в мм.
Облачность - указаны через наклонную черту общая и нижняя облачность в баллах и высота нижней границы облаков в метрах; квадратными скобками обозначены формы облаков: Ci - перистые, Cs - перисто-слоистые, Cc - перисто-кучевые, Ac - высококучевые, As - высокослоистые, Sc - слоисто-кучевые, Ns - слоисто-дождевые, Cu - кучевые, Cb - кучево-дождевые. Подробнее классификацию облаков см. в Атласе облаков (PDF).
T - Температура воздуха - температура, измеренная на высоте 2 м над землей.
Td - Температура точки росы - температура, при понижении до которой содержащийся в воздухе водяной пар достигнет насыщения.
f - Относительная влажность воздуха - влажноcть воздуха, измеренная на высоте 2 м над землей.
Te - Эффективная температура - температура, которую ощущает одетый по сезону человек в тени. Характеристика душности погоды. При расчете учитывается влияние влажности воздуха и скорости ветра на теплоощущения человека.
Tes - Эффективная температура на солнце - температура, которую ощущает человек, с поправкой на солнечный нагрев. Характеристика знойности погоды. Зависит от высоты солнца над горизонтом, облачности и скорости ветра. Ночью, в пасмурную погоду, а также при ветре 12 м/с и более поправка равна нулю.
P - Атмосферное давление - приведенное к уровню моря атмосферное давление.
Po - Атмосферное давление - измеренное на уровне метеостанции атмосферное давление.
Tmin - Минимальная температура - минимум температуры воздуха на высоте 2 м над землей.
Tmax - Максимальная температура - максимум температуры воздуха на высоте 2 м над землей.
R - Количество осадков - Количество выпавших осадков за период времени, мм. При наведении курсора мыши на число - период времени, за который выпало указанное количество осадков.
R24 - Количество осадков - Количество выпавших осадков за 24 часа, мм.
S - Снежный покров - Высота снежного покрова, см. При наведении курсора мыши на число - состояние снежного покрова и степень покрытия местности в баллах.